Location: Codford Saint Peter
(51.1597°N, 2.0531°W)
Time: 22:15:58
(UTC+00:00)

Cosmos 2233 Rocket - Pass Details

Date: 18 September 2020
Orbit: 952 x 991 km, 82.9° (Epoch: 20 October)

Event Time Altitude Azimuth Distance (km) Brightness Sun altitude
Rises 18:42:11 0° 181° (S) 3,669 6.9 -5.1°
Reaches altitude 10° 18:44:41 10° 180° (S) 2,720 6.3 -5.5°
Maximum altitude 18:50:54 76° 97° (E) 1,004 4.0 -6.5°
Drops below altitude 10° 18:57:06 10° 13° (NNE) 2,712 6.3 -7.4°
Sets 18:59:36 0° 12° (NNE) 3,657 7.0 -7.8°
